Location: Olmeneta
(45.2333°N, 10.0167°E)
Time: 16:12:06
(UTC+00:00)

Cosmos 1959 Rocket - Pass Details

Date: 03 March 2021
Orbit: 948 x 996 km, 82.9° (Epoch: 11 April)

Event Time Altitude Azimuth Distance (km) Brightness Sun altitude
Rises 19:09:30 0° 184° (S) 3,608 7.4 -21.7°
Reaches altitude 10° 19:11:59 10° 183° (S) 2,665 6.7 -22.1°
Maximum altitude 19:18:04 84° 97° (E) 960 4.3 -23.2°
Drops below altitude 10° 19:24:13 10° 10° (N) 2,687 6.9 -24.2°
Sets 19:26:43 0° 9° (N) 3,641 7.6 -24.6°
